TimeEST,TemperatureF,Dew PointF,Humidity,Sea Level PressureIn,VisibilityMPH,Wind Direction,Wind SpeedMPH,Gust SpeedMPH,PrecipitationIn,Events,Conditions,WindDirDegrees,DateUTC
12:53 AM,30.9,24.1,76,30.17,10.0,WNW,8.1,-,N/A,,Clear,290,2013-01-04 05:53:00
1:53 AM,30.0,23.0,75,30.18,10.0,NW,3.5,-,N/A,,Clear,310,2013-01-04 06:53:00
2:53 AM,28.0,23.0,81,30.20,10.0,WNW,3.5,-,N/A,,Clear,300,2013-01-04 07:53:00
3:53 AM,30.0,25.0,82,30.20,10.0,West,4.6,-,N/A,,Clear,260,2013-01-04 08:53:00
4:53 AM,28.9,25.0,85,30.20,10.0,West,3.5,-,N/A,,Clear,270,2013-01-04 09:53:00
5:53 AM,28.0,25.0,88,30.20,9.0,West,3.5,-,N/A,,Clear,260,2013-01-04 10:53:00
6:53 AM,24.1,21.9,91,30.20,7.0,Calm,Calm,-,N/A,,Clear,0,2013-01-04 11:53:00
8:53 AM,33.1,24.1,70,30.22,10.0,West,4.6,-,N/A,,Clear,270,2013-01-04 13:53:00
9:53 AM,36.0,24.1,62,30.22,10.0,Variable,5.8,-,N/A,,Clear,0,2013-01-04 14:53:00
10:53 AM,39.0,23.0,53,30.19,10.0,West,9.2,-,N/A,,Clear,280,2013-01-04 15:53:00
11:53 AM,41.0,23.0,49,30.17,10.0,WNW,11.5,-,N/A,,Clear,300,2013-01-04 16:53:00
12:53 PM,43.0,23.0,45,30.14,10.0,WNW,8.1,-,N/A,,Clear,300,2013-01-04 17:53:00
1:53 PM,44.1,21.9,42,30.11,10.0,WSW,11.5,18.4,N/A,,Clear,250,2013-01-04 18:53:00
2:53 PM,43.0,21.9,43,30.10,10.0,West,11.5,18.4,N/A,,Clear,280,2013-01-04 19:53:00
3:53 PM,41.0,21.9,47,30.10,10.0,West,11.5,20.7,N/A,,Clear,260,2013-01-04 20:53:00
4:53 PM,37.9,21.9,53,30.11,10.0,West,4.6,-,N/A,,Clear,270,2013-01-04 21:53:00
5:53 PM,35.1,23.0,61,30.11,10.0,WSW,5.8,-,N/A,,Clear,250,2013-01-04 22:53:00
6:53 PM,36.0,24.1,62,30.13,10.0,WSW,8.1,-,N/A,,Clear,250,2013-01-04 23:53:00
7:53 PM,35.1,25.0,67,30.14,10.0,WSW,6.9,-,N/A,,Clear,250,2013-01-05 00:53:00
9:53 PM,35.1,25.0,67,30.16,10.0,West,6.9,-,N/A,,Clear,270,2013-01-05 02:53:00
10:53 PM,35.1,24.1,64,30.17,10.0,West,9.2,-,N/A,,Clear,280,2013-01-05 03:53:00
11:53 PM,35.1,21.0,57,30.17,10.0,West,4.6,-,N/A,,Clear,270,2013-01-05 04:53:00